COSMOS 970 DEB

Satellite information

Favourite Embed

Satellite Type and Status

DEBRISIN ORBIT

Key statistics

Satellite COSMOS 970 DEB at a glance.

Uptime

17525

Days in orbit

Revolutions

≈ 13.8

Per day

Orbit

LEO

Low Earth Orbit

Inclination

65.8

Latest

Satellite identification and parameters

Extended collection of information and parameters for COSMOS 970 DEB.

Object identification

Identified? True

Debris? True

Object name: COSMOS 970 DEB

International designator: 1977-121AL

Object number (NORAD): 10889

Object ID (CCSDS): 10889

Country: COMMONWEALTH OF INDEPENDENT STATES (CIS)

Current information (Y/N): Y

RCS size: SMALL

Orbital parameters

Period: 104.612 minutes

Inclination: 65.8241 deg

SMA: 7354.389 km

Apoapsis: 1077.395 km

Periapsis: 875.114 km

RAAN: 198.1818 deg

Eccentricy: 0.01375239

Argument of periapsis: 225.4643 deg

Mean anomaly: 133.5123 deg

Mean motion: 13.76520951 rev/day

Mean motion (dot): 0.00000471 rev/day2

B* drag term: 0.00052552391 1/REarth

Two-line elements (TLE)

Creation date: Dec. 13, 2025, 4:32 a.m.

Reference frame: TEME

Reference center: EARTH

Epoch: Dec. 12, 2025, 11:28 p.m. UTC

TLE line 0: 0 COSMOS 970 DEB

TLE line 1: 1 10889U 77121AL 25346.97791464 .00000471 00000-0 52552-3 0 9995

TLE line 2: 2 10889 65.8241 198.1818 0137524 225.4643 133.5123 13.76520951399309

Live tracking on map

Real-time ground track for satellite COSMOS 970 DEB.

In-orbit conjunctions

A list of the most updated potential collisions computed for object COSMOS 970 DEB.

Target Orbit TCA Probability of collision Miss distance Type
THORAD AGENA D DEB SSO 2024-10-31 18:19:29 0.0002465203 116.0 (m) DEBRIS

Associated space launch

Second generation ASAT satellite

COSMOS 970 DEB was lifted into orbit during the mission ‘Tsiklon-2 | IS-A 8’, on board a Tsiklon-2 space rocket.

The launch took place on Dec. 21, 1977, 10:35 a.m. from 90.

For more information about the launch, click the button.

Launch to space Tsiklon-2 | IS-A 8
Tsiklon-2 | IS-A 8

Agency: N/A

Status: Launch Successful

Launch date: Dec. 21, 1977, 10:35 a.m. UTC

Rocket: Tsiklon-2

Launch pad: 90

Location: Baikonur Cosmodrome, Republic of Kazakhstan

...

Latest news about this satellite

There are no fresh news available about this satellite. Check back as we update our databases every day.


Newsletter sign-up

Weekly statistics, charts and insights to help you stay on top of the space industry.